Charter Quote
Worldwide +1-877-727-2538 Call
Select Language Lang
SAFETY RELIABILITY EXPERIENCE

Private Jet Charter Services - Meilan (ZJHK)

Paramount Business Jets offers private jet charter flights and luxury airliner charters to and from Meilan.

AIRPORT INFORMATION
ICAOZJHK
IATAHAK
LOCATIONHaikou, China
FACILITY TYPEAIRPORT

At Paramount Business Jets you can hire chartered private jets to and from Meilan with as little as 4 hours of notice. All flights booked via Paramount Business Jets are operated by certified direct air carriers that meet and exceed the FAA part 135 and 121 protocol or a foreign equivalent safety authority. Furthermore, Paramount Business Jets subscribes to ARGUS for their third party safety checks of operators, aircraft, and crews prior each and every flight to and from Meilan and worldwide.

  • Quote a trip using Meilan or call us 24/7 - 365 days a year at +1-877-727-2538.
Questions? Call +1-877-727-2538

METAR Weather Data at Meilan, ZJHK, HAK

STATIONZJHK
OBSERVEDMon Oct 21, 20:00 UTC
NOWMon Oct 21, 20:21 UTC
AGE21 min ago
WINDSSW at 2 mph
VISIBILITY10 miles
METARZJHK 212000Z 20001MPS 6000 NSC 21/20 Q1011 NOSIG

Call us on +1-877-727-2538 (24 Hours) to Hire a Private Jet or Get a Quick Quote.

Find Airports Near any Location

Processing
...